Weather History for KOPF - March, 2012

Change the Weather History Date:

Friday, March 30, 2012

  Actual Average Record
Temperature  
Mean Temperature 72 °F -  
Max Temperature 82 °F 81 °F 90 °F (1974)
Min Temperature 63 °F 67 °F 46 °F (1953)
Cooling Degree Days 8    
Growing Degree Days 22 (Base 50)    
Moisture  
Dew Point 58 °F    
Average Humidity 61    
Maximum Humidity 84    
Minimum Humidity 44    
Precipitation  
Precipitation 0.00 in - - ()
Sea Level Pressure  
Sea Level Pressure 30.05 in    
Wind  
Wind Speed 4 mph (ESE)    
Max Wind Speed 14 mph    
Max Gust Speed 20 mph    
Visibility 10 miles    
Events      
Averages and records for this station are not official NWS values.
T = Trace of Precipitation, MM = Missing Value Source: NWS Daily Summary

Daily Weather History Graph

Daily Weather History Graph

Search for Another Location

Airport or City:

Trip Planner

Search our weather history database for the weather conditions in past years. The results will help you decide how hot, cold, wet, or windy it might be!

Date:

Astronomy

Mar. 30, 2012 Rise Set
Actual Time 7:13 AM EDT 7:37 PM EDT
Civil Twilight 6:50 AM EDT 8:00 PM EDT
Nautical Twilight 6:23 AM EDT 8:27 PM EDT
Astronomical Twilight 5:56 AM EDT 8:54 PM EDT
Moon 12:44 PM EDT (3/30) 1:45 AM EDT (3/30)
Length of Visible Light 13h 09m
Length of Day
12h 23m
Waxing Crescent, 49% of the Moon is Illuminated
Mar 30
Waxing Crescent
Mar 30
First Quarter
Apr 6
Full
Apr 13
Last Quarter
Apr 21
New

Hourly Weather History & Observations

Time (EDT) Temp. Heat Index Dew Point Humidity Pressure Visibility Wind Dir Wind Speed Gust Speed Precip Events Conditions
12:53 AM 68.0 °F - 57.0 °F 68% 30.04 in 10.0 mi ENE 3.5 mph - N/A   Clear
1:53 AM 66.0 °F - 55.9 °F 70% 30.03 in 10.0 mi Calm Calm - N/A   Clear
2:53 AM 63.0 °F - 55.9 °F 78% 30.02 in 10.0 mi Calm Calm - N/A   Clear
3:53 AM 64.0 °F - 57.0 °F 78% 30.01 in 10.0 mi Calm Calm - N/A   Clear
4:53 AM 64.9 °F - 57.9 °F 78% 30.02 in 10.0 mi Calm Calm - N/A   Clear
5:53 AM 63.0 °F - 57.0 °F 81% 30.03 in 10.0 mi Calm Calm - N/A   Clear
6:53 AM 64.0 °F - 57.0 °F 78% 30.05 in 10.0 mi Calm Calm - N/A   Clear
7:53 AM 64.0 °F - 59.0 °F 84% 30.07 in 10.0 mi Calm Calm - N/A   Clear
8:53 AM 72.0 °F - 61.0 °F 68% 30.09 in 10.0 mi Calm Calm - N/A   Clear
9:53 AM 77.0 °F - 60.1 °F 56% 30.09 in 10.0 mi ESE 3.5 mph - N/A   Clear
10:53 AM 79.0 °F - 57.9 °F 48% 30.10 in 10.0 mi ESE 8.1 mph - N/A   Clear
11:53 AM 81.0 °F 81.3 °F 59.0 °F 47% 30.09 in 10.0 mi ESE 9.2 mph 17.3 mph N/A   Clear
12:53 PM 81.0 °F 81.1 °F 57.9 °F 45% 30.08 in 10.0 mi ESE 11.5 mph 19.6 mph N/A   Clear
1:53 PM 81.0 °F 81.3 °F 59.0 °F 47% 30.06 in 10.0 mi SSE 13.8 mph - N/A   Clear
2:53 PM 82.0 °F 82.0 °F 57.9 °F 44% 30.04 in 10.0 mi ESE 8.1 mph - N/A   Clear
3:53 PM 81.0 °F 81.1 °F 57.9 °F 45% 30.02 in 10.0 mi SE 8.1 mph - N/A   Clear
4:53 PM 79.0 °F - 57.9 °F 48% 30.03 in 10.0 mi SE 13.8 mph - N/A   Clear
5:53 PM 78.1 °F - 55.9 °F 46% 30.03 in 10.0 mi ESE 9.2 mph - N/A   Clear
6:53 PM 77.0 °F - 59.0 °F 54% 30.04 in 10.0 mi SE 8.1 mph - N/A   Clear
7:53 PM 73.9 °F - 57.0 °F 55% 30.04 in 10.0 mi SE 9.2 mph - N/A   Clear
8:53 PM 73.0 °F - 57.9 °F 59% 30.05 in 10.0 mi SE 4.6 mph - N/A   Clear
9:53 PM 71.1 °F - 57.9 °F 63% 30.06 in 10.0 mi ESE 4.6 mph - N/A   Clear
10:53 PM 71.1 °F - 57.9 °F 63% 30.05 in 10.0 mi SE 5.8 mph - N/A   Clear
11:53 PM 70.0 °F - 59.0 °F 68% 30.05 in 10.0 mi ESE 4.6 mph - N/A   Clear